Flag for United Arab Emirates Weather past 2 weeks in Al Ain, Abu Dhabi, United Arab Emirates

Now
77 °F

Sunny.


Feels Like: 78 °F
Forecast: 61 / 82 °F
Wind: 12 mph from West

Location: Al Ain International Airport

Current Time: Mar 6, 2015 at 3:30:17 PM

Latest Report: Mar 6, 2015 at 3:00 PM


Visibility: 10 mi

Pressure: 30.04 "Hg

Humidity: 34%

Dew point: 46 °F

Location of Al AinLocation

Historic Weather in Al Ain — Graph

°F

Al Ain temperature yesterday

Maximum temperature yesterday: 84 °F (at 4:00 PM)
Minimum temperature yesterday: 61 °F (at 5:00 AM)
Average temperature yesterday: 71 °F

Past Weeks' High & Low Weather Summary

 TemperatureHumidityPressure
High95 °F (Feb 19, 3:00 PM)82% (Feb 27, 4:00 AM)30.12 "Hg (Feb 27, 4:00 AM)
Low52 °F (Feb 25, 6:00 AM)7% (Feb 19, 3:00 PM)29.74 "Hg (Feb 20, 3:00 PM)
Average69 °F41%29.95 "Hg
* Reported Feb 19 2:00 PM — Mar 6 2:00 PM, Al Ain, Weather by CustomWeather, © 2015

Note: Actual official high and low records may vary slightly from our data, if they occured in-between our weather recording intervals... More about our weather records

Advertising

Al Ain weather history for previous 24 hours

 ConditionsComfort  
Time TempWeatherWind HumidityBarometerVisibility
2:00 PM
Fri, Mar 6
79 °FSunny.13 mph37%30.07 "Hg10 mi
1:00 PM77 °FPassing clouds.10 mph36%30.07 "HgN/A
12:00 PM73 °FPassing clouds.9 mph41%30.09 "HgN/A
11:00 AM72 °FPassing clouds.7 mph53%30.12 "HgN/A
10:00 AM68 °FPassing clouds.6 mph64%30.12 "HgN/A
9:00 AM66 °FPassing clouds.5 mph68%30.12 "HgN/A
8:00 AM64 °FSunny.3 mph68%30.09 "Hg10 mi
7:00 AM61 °FSunny.3 mph68%30.07 "Hg10 mi
6:00 AM61 °FClear.No wind63%30.04 "Hg10 mi
5:00 AM61 °FClear.No wind63%30.01 "Hg10 mi
4:00 AM63 °FClear.2 mph59%30.01 "Hg10 mi
3:00 AM61 °FClear.2 mph63%30.01 "Hg10 mi
2:00 AM63 °FPassing clouds.3 mph59%30.01 "HgN/A
1:00 AM63 °FClear.3 mph59%30.04 "Hg10 mi
12:00 AM64 °FClear.3 mph56%30.04 "Hg10 mi
11:00 PM
Thu, Mar 5
66 °FClear.3 mph49%30.04 "Hg10 mi
10:00 PM66 °FClear.6 mph49%30.04 "Hg10 mi
9:00 PM68 °FClear.7 mph46%30.04 "Hg10 mi
8:00 PM72 °FClear.9 mph41%30.01 "Hg10 mi
7:00 PM75 °FClear.12 mph31%29.98 "Hg10 mi
6:00 PM79 °FSunny.13 mph24%29.95 "Hg10 mi
5:00 PM81 °FSunny.13 mph24%29.95 "Hg10 mi
4:00 PM84 °FPassing clouds.14 mph18%29.92 "HgN/A
3:00 PM82 °FSunny.14 mph20%29.92 "Hg10 mi
Weather by CustomWeather, © 2015

See weather overviewHow to use our weather pages